Prestwick, United Kingdom

12:38 AM BST on March 27, 2017 (GMT +0100)
Prestwick

Weather History for EGPK - September, 2012

Change the Weather History Date:

Thursday, September 6, 2012

  Actual Average Record
Temperature  
Mean Temperature 53 °F -  
Max Temperature 60 °F 60 °F 71 °F (1999)
Min Temperature 46 °F 46 °F 39 °F (2013)
Degree Days  
Heating Degree Days 12    
Growing Degree Days 3 (Base 50)    
Moisture  
Dew Point 52 °F    
Average Humidity 84    
Maximum Humidity 94    
Minimum Humidity 68    
Precipitation  
Precipitation 0.00 in - - ()
Sea Level Pressure  
Sea Level Pressure 30.17 in    
Wind  
Wind Speed 11 mph ()    
Max Wind Speed 23 mph    
Max Gust Speed 32 mph    
Visibility 5.6 miles    
Events Rain    
Averages and records for this station are not official NWS values.
T = Trace of Precipitation, MM = Missing Value Source: Averaged Metar Reports

Daily Weather History Graph

Daily Weather History Graph

Search for Another Location

Airport or City:

Trip Planner

Search our weather history database for the weather conditions in past years. The results will help you decide how hot, cold, wet, or windy it might be!

Date:

Astronomy

Sep. 06, 2012 Rise Set
Actual Time 6:33 AM BST 7:58 PM BST
Civil Twilight 5:55 AM BST 8:35 PM BST
Nautical Twilight 5:08 AM BST 9:22 PM BST
Astronomical Twilight 4:15 AM BST 10:14 PM BST
Moon 9:46 PM BST (9/6) 1:31 PM BST (9/6)
Length of Visible Light 14h 40m
Length of Day
13h 24m
Waning Gibbous, 69% of the Moon is Illuminated
Sep 6
Waning Gibbous
Sep 8
Last Quarter
Sep 16
New
Sep 22
First Quarter
Sep 30
Full

Hourly Weather History & Observations

Time (BST) Temp. Windchill Dew Point Humidity Pressure Visibility Wind Dir Wind Speed Gust Speed Precip Events Conditions
12:20 AM 46.4 °F 44.3 °F 42.8 °F 87% 30.39 in - East 4.6 mph - N/A   Clear
12:50 AM 46.4 °F 42.9 °F 42.8 °F 87% 30.39 in - ESE 6.9 mph - N/A   Clear
1:50 AM 46.4 °F 43.5 °F 42.8 °F 87% 30.36 in - ESE 5.8 mph - N/A   Clear
2:50 AM 48.2 °F - 46.4 °F 93% 30.36 in 6.2 mi SE 4.6 mph - N/A   Scattered Clouds
3:50 AM 50.0 °F - 48.2 °F 94% 30.33 in 6.2 mi SSE 4.6 mph - N/A   Mostly Cloudy
4:50 AM 51.8 °F - 48.2 °F 88% 30.30 in 6.2 mi SSE 6.9 mph - N/A   Mostly Cloudy
5:50 AM 51.8 °F - 46.4 °F 82% 30.27 in 6.2 mi South 4.6 mph - N/A   Mostly Cloudy
6:20 AM 51.8 °F - 48.2 °F 88% 30.24 in 6.2 mi South 10.4 mph - N/A   Scattered Clouds
6:50 AM 53.6 °F - 48.2 °F 82% 30.24 in 6.2 mi South 10.4 mph - N/A   Scattered Clouds
7:20 AM 53.6 °F - 50.0 °F 88% 30.24 in 6.2 mi South 12.7 mph - N/A   Scattered Clouds
7:50 AM 55.4 °F - 50.0 °F 82% 30.24 in 6.2 mi South 9.2 mph - N/A   Scattered Clouds
8:20 AM 55.4 °F - 50.0 °F 82% 30.21 in 6.2 mi SSE 12.7 mph - N/A   Scattered Clouds
8:50 AM 57.2 °F - 50.0 °F 77% 30.21 in 6.2 mi South 11.5 mph - N/A   Scattered Clouds
9:20 AM 59.0 °F - 50.0 °F 72% 30.21 in 6.2 mi SSW 15.0 mph - N/A   Scattered Clouds
9:50 AM 60.8 °F - 50.0 °F 68% 30.18 in 6.2 mi SSW 18.4 mph - N/A   Scattered Clouds
10:20 AM 60.8 °F - 51.8 °F 72% 30.18 in 6.2 mi SW 23.0 mph - N/A   Scattered Clouds
10:50 AM 60.8 °F - 51.8 °F 72% 30.18 in 6.2 mi SSW 19.6 mph - N/A   Scattered Clouds
11:20 AM 59.0 °F - 50.0 °F 72% 30.15 in 6.2 mi SSW 19.6 mph 32.2 mph N/A   Scattered Clouds
11:50 AM 59.0 °F - 51.8 °F 77% 30.15 in 6.2 mi SSW 17.3 mph 31.1 mph N/A   Mostly Cloudy
12:20 PM 59.0 °F - 50.0 °F 72% 30.15 in 6.2 mi SSW 17.3 mph - N/A   Mostly Cloudy
12:50 PM 59.0 °F - 50.0 °F 72% 30.15 in 6.2 mi SSW 13.8 mph - N/A   Mostly Cloudy
1:20 PM 59.0 °F - 51.8 °F 77% 30.15 in 6.2 mi SSW 11.5 mph - N/A Rain Light Rain
1:50 PM 59.0 °F - 51.8 °F 77% 30.15 in 6.2 mi SSW 12.7 mph - N/A Rain Light Rain
2:20 PM 59.0 °F - 51.8 °F 77% 30.12 in 6.2 mi SSW 15.0 mph - N/A   Mostly Cloudy
2:50 PM 59.0 °F - 51.8 °F 77% 30.12 in 6.2 mi SW 17.3 mph 28.8 mph N/A   Mostly Cloudy
3:20 PM 59.0 °F - 53.6 °F 82% 30.12 in 6.2 mi SW 16.1 mph 27.6 mph N/A   Mostly Cloudy
3:50 PM 60.8 °F - 53.6 °F 77% 30.09 in 6.2 mi SW 20.7 mph - N/A   Mostly Cloudy
4:20 PM 59.0 °F - 55.4 °F 88% 30.09 in 6.2 mi SW 19.6 mph - N/A   Mostly Cloudy
4:50 PM 59.0 °F - 55.4 °F 88% 30.09 in 5.0 mi SW 19.6 mph - N/A   Mostly Cloudy
5:20 PM 59.0 °F - 55.4 °F 88% 30.09 in 4.3 mi SW 18.4 mph - N/A   Mostly Cloudy
5:50 PM 59.0 °F - 57.2 °F 94% 30.09 in 3.7 mi SW 19.6 mph 31.1 mph N/A   Mostly Cloudy
6:20 PM 59.0 °F - 57.2 °F 94% 30.09 in 3.7 mi SW 16.1 mph 28.8 mph N/A   Mostly Cloudy
6:50 PM 59.0 °F - 57.2 °F 94% 30.09 in 5.0 mi WSW 17.3 mph - N/A   Mostly Cloudy
7:20 PM 60.8 °F - 57.2 °F 88% 30.09 in 5.0 mi SW 17.3 mph - N/A   Mostly Cloudy
7:50 PM 60.8 °F - 57.2 °F 88% 30.09 in 5.0 mi SW 16.1 mph - N/A   Light Drizzle
8:20 PM 60.8 °F - 57.2 °F 88% 30.09 in 5.0 mi SW 17.3 mph - N/A   Light Drizzle
8:50 PM 59.0 °F - 57.2 °F 94% 30.12 in 5.0 mi WSW 16.1 mph - N/A Rain Light Rain
9:20 PM 59.0 °F - 57.2 °F 94% 30.12 in 4.3 mi SW 15.0 mph - N/A Rain Light Rain
9:50 PM 59.0 °F - 57.2 °F 94% 30.12 in 4.3 mi WSW 15.0 mph - N/A Rain Light Rain
10:20 PM 59.0 °F - 57.2 °F 94% 30.12 in 4.3 mi WSW 16.1 mph - N/A Rain Light Rain
10:50 PM 59.0 °F - 57.2 °F 94% 30.09 in 4.3 mi SW 15.0 mph - N/A Rain Light Rain
11:20 PM 59.0 °F - 57.2 °F 94% 30.12 in 4.3 mi SW 11.5 mph - N/A Rain Light Rain
11:50 PM 59.0 °F - 57.2 °F 94% 30.12 in 4.3 mi SW 11.5 mph - N/A Rain Light Rain